Weather History for Vicksburg, MS

Change the Weather History Date:

Saturday, October 20, 2012

  Actual Average Record
Temperature  
Mean Temperature 59 °F 64 °F  
Max Temperature 83 °F 77 °F 90 °F (2004)
Min Temperature 34 °F 51 °F 27 °F (2011)
Degree Days  
Heating Degree Days 6 4  
Month to date heating degree days 71 40  
Since 1 July heating degree days 75 45  
Cooling Degree Days 0 3  
Month to date cooling degree days 42 86  
Year to date cooling degree days 2374 2183  
Growing Degree Days 6 (Base 50)    
Moisture  
Dew Point 41 °F    
Average Humidity 62    
Maximum Humidity 100    
Minimum Humidity 23    
Precipitation  
Precipitation 0.00 in 0.17 in 3.09 in (2002)
Month to date precipitation 0.71 3.05  
Year to date precipitation 44.29 42.51  
Sea Level Pressure  
Sea Level Pressure 29.97 in    
Wind  
Wind Speed 1 mph (South)    
Max Wind Speed 8 mph    
Max Gust Speed -    
Visibility 9 miles    
Events      
T = Trace of Precipitation, MM = Missing Value Source: NWS Daily Summary

Daily Weather History Graph

Daily Weather History Graph

Search for Another Location

Airport:

Trip Planner

Search our weather history database for the weather conditions in past years. The results will help you decide how hot, cold, wet, or windy it might be!

Date:

Astronomy

Oct. 20, 2012 Rise Set
Actual Time 7:11 AM CDT 6:25 PM CDT
Civil Twilight 6:47 AM CDT 6:50 PM CDT
Nautical Twilight 6:18 AM CDT 7:18 PM CDT
Astronomical Twilight 5:49 AM CDT 7:47 PM CDT
Moon 12:38 PM CDT (10/20) 11:20 PM CDT (10/20)
Length of Visible Light 12h 02m
Length of Day
11h 13m
Waxing Crescent, 34% of the Moon is Illuminated
Oct 20
Waxing Crescent
Oct 21
First Quarter
Oct 29
Full
Nov 6
Last Quarter
Nov 13
New

Hourly Weather History & Observations

Time (CDT) Temp. Windchill Dew Point Humidity Pressure Visibility Wind Dir Wind Speed Gust Speed Precip Events Conditions
12:53 AM 39.0 °F - 36.0 °F 89% 29.94 in 10.0 mi Calm Calm - N/A   Clear
1:53 AM 37.9 °F - 36.0 °F 93% 29.95 in 10.0 mi Calm Calm - N/A   Clear
2:53 AM 37.0 °F - 36.0 °F 96% 29.95 in 10.0 mi Calm Calm - N/A   Clear
3:53 AM 36.0 °F - 35.1 °F 97% 29.95 in 10.0 mi Calm Calm - N/A   Clear
4:53 AM 36.0 °F - 34.0 °F 93% 29.96 in 10.0 mi Calm Calm - N/A   Clear
5:53 AM 35.1 °F - 33.1 °F 92% 29.99 in 10.0 mi Calm Calm - N/A   Clear
6:08 AM 35.6 °F - 35.6 °F 100% 29.97 in 1.8 mi Calm Calm - N/A   Clear
6:17 AM 33.8 °F - 33.8 °F 100% 29.96 in 3.0 mi Calm Calm - N/A   Clear
6:53 AM 35.1 °F - 34.0 °F 96% 29.99 in 10.0 mi Calm Calm - N/A   Clear
7:53 AM 43.0 °F 41.3 °F 42.1 °F 97% 30.01 in 10.0 mi WSW 3.5 mph - N/A   Clear
8:53 AM 54.0 °F - 48.0 °F 80% 30.02 in 10.0 mi South 3.5 mph - N/A   Clear
9:53 AM 62.1 °F - 46.9 °F 58% 30.04 in 10.0 mi Variable 4.6 mph - N/A   Clear
4:53 PM 80.1 °F - 39.9 °F 24% 29.93 in - South 5.8 mph - N/A   Unknown
5:53 PM 75.0 °F - 44.1 °F 33% 29.94 in 10.0 mi South 8.1 mph - N/A   Unknown
6:53 PM 61.0 °F - 46.9 °F 60% 29.94 in 10.0 mi SSE 4.6 mph - N/A   Clear
7:53 PM 54.0 °F - 46.9 °F 77% 29.94 in 10.0 mi SSE 3.5 mph - N/A   Clear
8:53 PM 53.1 °F - 48.0 °F 83% 29.96 in 10.0 mi Calm Calm - N/A   Clear
9:53 PM 48.9 °F - 46.9 °F 93% 29.98 in 10.0 mi Calm Calm - N/A   Clear
10:53 PM 50.0 °F - 46.0 °F 86% 29.99 in 10.0 mi Calm Calm - N/A   Clear
11:53 PM 50.0 °F - 46.0 °F 86% 29.99 in 10.0 mi ESE 3.5 mph - N/A   Clear